Regional Weather Roundup
Issued by NWS

Home | Current Version | Previous Version | Graphics & Text | Print | Product List | Glossary On
Versions: 1 2 3 4 5 6 7 8 9 10 11 12 13 14 15 16 17 18 19 20 21 22 23 24 25 26 27 28 29 30 31 32 33 34 35 36 37 38 39 40 41 42 43 44 45 46 47 48 49 50
000
ASUS43 KLSX 071207
RWRMO

WEATHER SUMMARY FOR MISSOURI
NATIONAL WEATHER SERVICE SPRINGFIELD MO
600 AM CST SUN FEB 07 2016

NOTE: "FAIR" INDICATES FEW OR NO CLOUDS BELOW 12,000 FEET WITH NO
       SIGNIFICANT WEATHER AND/OR OBSTRUCTIONS TO VISIBILITY.
       CURRENT SKY AND/OR WEATHER CONDITIONS ARE NOT AVAILABLE FOR
       CHILLICOTHE AND FARMINGTON.

MOZ001>031-035>038-043-044-053-054-071300-
...NORTHERN AND WESTERN MISSOURI...

CITY           SKY/WX    TMP DP  RH WIND       PRES   REMARKS
KANSAS CTY INT CLOUDY    38  27  64 W10       29.99R
6HR MIN TEMP:  37; 6HR MAX TEMP:  40;

KANSAS C DTWN  MOCLDY    41  26  55 SW9       29.99S
6HR MIN TEMP:  40; 6HR MAX TEMP:  44;

LEE`S SUMMIT   PTCLDY    40  26  57 SW16      29.98F
6HR MIN TEMP:  38; 6HR MAX TEMP:  40;

ST JOSEPH      CLOUDY    36  27  69 SW5       29.99R
6HR MIN TEMP:  34; 6HR MAX TEMP:  39;

CHILLICOTHE      N/A     37  27  67 SW5       29.96S
6HR MIN TEMP:  36; 6HR MAX TEMP:  39;

KIRKSVILLE     PTCLDY    38  26  62 SW13      29.92F WCI  30
6HR MIN TEMP:  38; 6HR MAX TEMP:  39;


$$
MOZ066>068-077>081-088>096-101>105-071300-
...SOUTHWEST MISSOURI...

CITY           SKY/WX    TMP DP  RH WIND       PRES   REMARKS
SPRINGFIELD    CLEAR     32  26  78 S10       30.08F WCI  24
6HR MIN TEMP:  32; 6HR MAX TEMP:  37;

JOPLIN         CLEAR     40  29  64 SW16G24   30.10R
6HR MIN TEMP:  35; 6HR MAX TEMP:  41;


$$
MOZ032>034-039>042-045>050-055>058-069>072-071300-
...CENTRAL MISSOURI...

CITY           SKY/WX    TMP DP  RH WIND       PRES   REMARKS
COLUMBIA       CLEAR     37  28  70 SW15      30.00F WCI  28
6HR MIN TEMP:  36; 6HR MAX TEMP:  38;

JEFFERSON CITY CLEAR     38  27  64 SE6       30.04F
6HR MIN TEMP:  37; 6HR MAX TEMP:  42;

ROLLA          CLEAR     35  26  69 SW13      30.04F WCI  26
6HR MIN TEMP:  34; 6HR MAX TEMP:  37;

SEDALIA        PTCLDY    40  27  59 SW17      30.00F
6HR MIN TEMP:  39; 6HR MAX TEMP:  41;

WHITEMAN AFB   CLOUDY    37  28  70 SW16      29.98S WCI  28
WARRENSBURG    PTCLDY    37  28  70 SW14      29.99F WCI  29
OSAGE BEACH    CLEAR     39  25  56 S9        30.05F

$$
MOZ051-052-059>065-071300-
...EAST CENTRAL MISSOURI...

CITY           SKY/WX    TMP DP  RH WIND       PRES   REMARKS
ST LOUIS INTL  MOCLDY    42  24  49 SW14      30.04F
6HR MIN TEMP:  42; 6HR MAX TEMP:  44;

SPIRIT OF STL  CLEAR     42  26  53 SW10G18   30.04F
6HR MIN TEMP:  29; 6HR MAX TEMP:  42;

ST CHARLES     PTCLDY    34  25  69 SW6       30.04F WCI  29
6HR MIN TEMP:  30; 6HR MAX TEMP:  38;


$$
MOZ072>076-082>087-097>100-106>115-071300-
...SOUTH CENTRAL AND SOUTHEAST MISSOURI...

CITY           SKY/WX    TMP DP  RH WIND       PRES   REMARKS
CAPE GIRARDEAU PTCLDY    34  24  67 SW7       30.16F WCI  28
6HR MIN TEMP:  27; 6HR MAX TEMP:  38;

FARMINGTON     CLEAR     34  19  54 SW3       30.10F
6HR MIN TEMP:  33; 6HR MAX TEMP:  39;

POPLAR BLUFF   CLEAR     33  24  69 S7        30.15F WCI  27
6HR MIN TEMP:  32; 6HR MAX TEMP:  36;

WEST PLAINS    CLEAR     36  18  48 SW8       30.12F WCI  30
6HR MIN TEMP:  33; 6HR MAX TEMP:  39;


$$


USA.gov is the U.S. government's official web portal to all federal, state and local government web resources and services.